EW5390 Weather Reports


Display with metric or nautical units.
time (UTC)temp
F
wind
direction
speed
MPH
gust
MPH
rain 1hr
in
rain 24hr
in
rain mn
in
humidity
%
barometer
mb
20260906201055 78 51 0.0 6.0 0.00 0.00 0.00 71 1014.4
20260906200555 78 58 3.0 6.0 0.00 0.00 0.00 68 1014.5
20260906200106 78 49 3.0 7.0 0.00 0.00 0.00 68 1014.6
20260906195556 78 57 4.0 7.0 0.00 0.00 0.00 68 1014.5
20260906195055 78 100 2.0 5.0 0.00 0.00 0.00 70 1014.6
20260906194603 77 53 3.0 5.0 0.00 0.00 0.00 70 1014.6
20260906194054 77 45 0.0 4.0 0.00 0.00 0.00 70 1014.6
20260906193555 77 52 3.0 7.0 0.00 0.00 0.00 70 1014.6
20260906193058 77 0 1.0 7.0 0.00 0.00 0.00 69 1014.6
20260906192551 77 55 4.0 7.0 0.00 0.00 0.00 69 1014.6
20260906192055 77 64 1.0 8.0 0.00 0.00 0.00 71 1014.7
20260906191610 77 54 3.0 8.0 0.00 0.00 0.00 71 1014.7
20260906191059 77 49 4.0 8.0 0.00 0.00 0.00 71 1014.7
20260906190554 77 58 4.0 6.0 0.00 0.00 0.00 73 1014.7
20260906185557 77 63 1.0 6.0 0.00 0.00 0.00 71 1014.9
20260906185055 77 0 2.0 6.0 0.00 0.00 0.00 71 1014.9
20260906184603 77 77 3.0 7.0 0.00 0.00 0.00 74 1014.9
20260906184057 77 28 2.0 7.0 0.00 0.00 0.00 72 1015.0
20260906183555 77 55 4.0 7.0 0.00 0.00 0.00 70 1015.0
20260906183100 77 59 3.0 5.0 0.00 0.00 0.00 72 1014.9
20260906182558 77 231 1.0 4.0 0.00 0.00 0.00 73 1015.0
20260906182054 77 49 1.0 7.0 0.00 0.00 0.00 72 1015.1
20260906181604 77 41 2.0 7.0 0.00 0.00 0.00 72 1015.0
20260906181054 77 157 4.0 7.0 0.00 0.00 0.00 72 1015.0
20260906180557 77 53 3.0 7.0 0.00 0.00 0.00 70 1015.1
20260906180135 76 46 3.0 8.0 0.00 0.00 0.00 71 1015.1
20260906175554 76 41 2.0 8.0 0.00 0.00 0.00 73 1015.2
20260906175055 76 51 2.0 7.0 0.00 0.00 0.00 73 1015.1
20260906174606 75 58 2.0 3.0 0.00 0.00 0.00 75 1015.1
20260906174055 75 31 1.0 4.0 0.00 0.00 0.00 75 1015.0
20260906173554 75 325 2.0 11.0 0.00 0.00 0.00 76 1015.0
20260906173102 76 51 3.0 11.0 0.00 0.00 0.00 75 1015.1
20260906172555 76 51 3.0 7.0 0.00 0.00 0.00 75 1015.1
20260906172054 76 33 3.0 8.0 0.00 0.00 0.00 74 1015.1
20260906171600 76 54 4.0 8.0 0.00 0.00 0.00 75 1015.2
20260906171054 76 58 3.0 9.0 0.00 0.00 0.00 76 1015.2
20260906170555 76 51 5.0 9.0 0.00 0.00 0.00 74 1015.2
20260906170108 77 53 3.0 7.0 0.00 0.00 0.00 72 1015.2
20260906165555 76 55 2.0 7.0 0.00 0.00 0.00 75 1015.3
20260906165054 76 87 5.0 7.0 0.00 0.00 0.00 76 1015.3
20260906164605 76 65 2.0 7.0 0.00 0.00 0.00 76 1015.3
20260906164054 75 22 3.0 7.0 0.00 0.00 0.00 77 1015.3
20260906163554 75 39 2.0 7.0 0.00 0.00 0.00 77 1015.2
20260906163104 75 60 2.0 7.0 0.00 0.00 0.00 77 1015.2
20260906162555 76 51 4.0 6.0 0.00 0.00 0.00 76 1015.2
20260906162051 76 68 3.0 8.0 0.00 0.00 0.00 77 1015.2
20260906161556 75 61 3.0 8.0 0.00 0.00 0.00 76 1015.2
20260906161054 75 17 4.0 7.0 0.00 0.00 0.00 77 1015.2
20260906160554 76 62 4.0 9.0 0.00 0.00 0.00 76 1015.3
20260906160105 76 47 6.0 9.0 0.00 0.00 0.00 73 1015.3
20260906155554 76 55 4.0 9.0 0.00 0.00 0.00 75 1015.2
20260906155054 76 50 5.0 9.0 0.00 0.00 0.00 73 1015.3
20260906154606 77 65 2.0 9.0 0.00 0.00 0.00 74 1015.2
20260906154055 76 55 3.0 9.0 0.00 0.00 0.00 75 1015.2
20260906153556 76 46 5.0 9.0 0.00 0.00 0.00 74 1015.2
20260906153114 76 87 3.0 6.0 0.00 0.00 0.00 77 1015.2
20260906152554 76 47 2.0 7.0 0.00 0.00 0.00 75 1015.2
20260906152051 76 58 4.0 7.0 0.00 0.00 0.00 76 1015.2
20260906151608 76 63 1.0 6.0 0.00 0.00 0.00 76 1015.1
20260906151054 75 68 4.0 6.0 0.00 0.00 0.00 76 1015.1
20260906150554 75 65 1.0 4.0 0.00 0.00 0.00 78 1015.1
20260906150106 75 57 3.0 6.0 0.00 0.00 0.00 78 1015.0
20260906145558 74 55 1.0 6.0 0.00 0.00 0.00 79 1015.1
20260906145055 74 56 3.0 6.0 0.00 0.00 0.00 79 1015.0
20260906144601 74 60 2.0 8.0 0.00 0.00 0.00 79 1015.0
20260906144053 74 66 5.0 8.0 0.00 0.00 0.00 80 1015.0
20260906143555 74 58 3.0 5.0 0.00 0.00 0.00 81 1015.0
20260906143058 74 65 1.0 6.0 0.00 0.00 0.00 81 1015.0
20260906142555 73 62 2.0 6.0 0.00 0.00 0.00 81 1014.9
20260906142052 73 57 2.0 6.0 0.00 0.00 0.00 81 1014.9
20260906141607 72 58 3.0 6.0 0.00 0.00 0.00 83 1015.0
20260906141054 72 80 3.0 6.0 0.00 0.00 0.00 83 1014.8
20260906140554 72 78 2.0 5.0 0.00 0.00 0.00 83 1014.8
20260906140112 72 56 2.0 5.0 0.00 0.00 0.00 85 1014.7
20260906135554 71 61 2.0 7.0 0.00 0.00 0.00 86 1014.7
20260906135054 71 56 4.0 7.0 0.00 0.00 0.00 85 1014.7
20260906134615 71 74 3.0 7.0 0.00 0.00 0.00 86 1014.7
20260906134055 71 76 4.0 10.0 0.00 0.00 0.00 86 1014.6
20260906133555 71 62 2.0 10.0 0.00 0.00 0.00 86 1014.7
20260906133109 71 82 4.0 10.0 0.00 0.00 0.00 86 1014.7
20260906132555 70 18 3.0 5.0 0.00 0.00 0.00 87 1014.7
20260906132055 70 67 2.0 5.0 0.00 0.00 0.00 88 1014.6
20260906131557 70 79 1.0 4.0 0.00 0.00 0.00 87 1014.6
20260906131054 70 27 2.0 4.0 0.00 0.00 0.00 88 1014.5
20260906130555 70 65 2.0 5.0 0.00 0.00 0.00 88 1014.5
20260906130104 69 58 2.0 5.0 0.00 0.00 0.00 89 1014.5
20260906125555 69 48 2.0 5.0 0.00 0.00 0.00 88 1014.5
20260906125055 69 51 2.0 5.0 0.00 0.00 0.00 89 1014.5
20260906124600 69 16 2.0 5.0 0.00 0.00 0.00 89 1014.5
20260906124057 68 58 2.0 5.0 0.00 0.00 0.00 90 1014.5
20260906123554 68 13 2.0 5.0 0.00 0.00 0.00 91 1014.5
20260906123103 68 62 1.0 4.0 0.00 0.00 0.00 92 1014.5
20260906122554 67 73 2.0 3.0 0.00 0.00 0.00 92 1014.4
20260906122055 66 52 0.0 2.0 0.00 0.00 0.00 93 1014.4
20260906121607 66 6 0.0 1.0 0.00 0.00 0.00 94 1014.4
20260906121054 65 0 0.0 0.0 0.00 0.00 0.00 95 1014.4
20260906120554 65 0 0.0 0.0 0.00 0.00 0.00 95 1014.3
20260906120108 64 0 0.0 0.0 0.00 0.00 0.00 96 1014.2
20260906115555 64 0 0.0 0.0 0.00 0.00 0.00 96 1014.2
20260906115054 63 0 0.0 0.0 0.00 0.00 0.00 96 1014.1
20260906114604 63 0 0.0 0.0 0.00 0.00 0.00 96 1014.1
20260906114055 63 0 0.0 0.0 0.00 0.00 0.00 95 1014.1
20260906113554 63 0 0.0 0.0 0.00 0.00 0.00 95 1014.1
20260906113100 63 0 0.0 0.0 0.00 0.00 0.00 96 1014.1
20260906112554 63 0 0.0 0.0 0.00 0.00 0.00 96 1014.0
20260906112054 63 0 0.0 0.0 0.00 0.00 0.00 96 1013.9
20260906111607 63 0 0.0 0.0 0.00 0.00 0.00 96 1013.7
20260906111054 63 0 0.0 0.0 0.00 0.00 0.00 95 1013.7
20260906110555 63 0 0.0 0.0 0.00 0.00 0.00 95 1013.6
20260906110105 62 0 0.0 0.0 0.00 0.00 0.00 95 1013.7
20260906105554 62 0 0.0 0.0 0.00 0.00 0.00 95 1013.6
20260906105054 62 0 0.0 0.0 0.00 0.00 0.00 95 1013.5
20260906104602 62 0 0.0 0.0 0.00 0.00 0.00 95 1013.5
20260906104054 63 0 0.0 0.0 0.00 0.00 0.00 95 1013.3
20260906103555 63 0 0.0 0.0 0.00 0.00 0.00 95 1013.3
20260906103109 63 0 0.0 0.0 0.00 0.00 0.00 95 1013.1
20260906102554 63 0 0.0 0.0 0.00 0.00 0.00 95 1013.1
20260906102057 63 0 0.0 0.0 0.00 0.00 0.00 95 1013.0
20260906101603 63 0 0.0 0.0 0.00 0.00 0.00 95 1013.0
20260906101054 63 0 0.0 0.0 0.00 0.00 0.00 95 1013.0
20260906100555 63 0 0.0 0.0 0.00 0.00 0.00 95 1012.9
20260906100105 63 0 0.0 0.0 0.00 0.00 0.00 95 1012.9
20260906095554 63 0 0.0 0.0 0.00 0.00 0.00 95 1012.8
20260906095056 63 0 0.0 0.0 0.00 0.00 0.00 95 1012.7
20260906094556 63 0 0.0 0.0 0.00 0.00 0.00 95 1012.7
20260906094057 63 0 0.0 0.0 0.00 0.00 0.00 95 1012.7
20260906093554 63 0 0.0 0.0 0.00 0.00 0.00 95 1012.5
20260906093105 63 0 0.0 0.0 0.00 0.00 0.00 95 1012.5
20260906092554 63 0 0.0 0.0 0.00 0.00 0.00 95 1012.4
20260906092055 63 0 0.0 0.0 0.00 0.00 0.00 95 1012.4
20260906091606 63 0 0.0 0.0 0.00 0.00 0.00 95 1012.4
20260906091055 63 0 0.0 0.0 0.00 0.00 0.00 94 1012.4
20260906090557 63 0 0.0 0.0 0.00 0.00 0.00 94 1012.4
20260906090118 63 0 0.0 0.0 0.00 0.00 0.00 94 1012.4
20260906085553 63 0 0.0 0.0 0.00 0.00 0.00 94 1012.3
20260906085054 63 0 0.0 0.0 0.00 0.00 0.00 94 1012.2
20260906084600 64 0 0.0 0.0 0.00 0.00 0.00 94 1012.3
20260906084054 64 0 0.0 0.0 0.00 0.00 0.00 94 1012.3
20260906083553 64 0 0.0 0.0 0.00 0.00 0.00 94 1012.2
20260906083116 64 0 0.0 0.0 0.00 0.00 0.00 94 1012.1
20260906082553 64 0 0.0 0.0 0.00 0.00 0.00 94 1012.1
20260906082054 64 0 0.0 0.0 0.00 0.00 0.00 94 1011.9
20260906081606 64 0 0.0 0.0 0.00 0.00 0.00 94 1011.9
20260906081054 64 0 0.0 0.0 0.00 0.00 0.00 94 1011.8
20260906080554 64 0 0.0 0.0 0.00 0.00 0.00 94 1011.8
20260906080127 64 0 0.0 0.0 0.00 0.00 0.00 94 1011.8
20260906075555 64 0 0.0 0.0 0.00 0.00 0.00 94 1011.9
20260906075054 64 0 0.0 0.0 0.00 0.00 0.00 94 1011.9
20260906074609 64 0 0.0 0.0 0.00 0.00 0.00 94 1011.8
20260906074053 64 0 0.0 0.0 0.00 0.00 0.00 93 1011.9
20260906073557 64 0 0.0 0.0 0.00 0.00 0.00 94 1011.9
20260906073110 64 0 0.0 0.0 0.00 0.00 0.00 93 1011.8
20260906072555 64 0 0.0 0.0 0.00 0.00 0.00 93 1011.8
20260906072055 65 0 0.0 0.0 0.00 0.00 0.00 94 1011.7
20260906071602 65 0 0.0 0.0 0.00 0.00 0.00 94 1011.7
20260906071053 65 0 0.0 0.0 0.00 0.00 0.00 93 1011.6
20260906070553 65 0 0.0 0.0 0.00 0.00 0.00 93 1011.7
20260906070111 65 0 0.0 0.0 0.00 0.00 0.00 93 1011.7
20260906065556 65 0 0.0 0.0 0.00 0.00 0.00 93 1011.6
20260906065055 65 0 0.0 0.0 0.00 0.00 0.00 93 1011.7
20260906064559 65 0 0.0 0.0 0.00 0.00 0.00 93 1011.7
20260906064055 65 0 0.0 0.0 0.00 0.00 0.00 93 1011.6
20260906063553 65 0 0.0 0.0 0.00 0.00 0.00 93 1011.6
20260906063103 65 0 0.0 0.0 0.00 0.00 0.00 92 1011.6
20260906062553 65 0 0.0 0.0 0.00 0.00 0.00 93 1011.7
20260906062054 65 0 0.0 0.0 0.00 0.00 0.00 92 1011.7
20260906061606 65 0 0.0 0.0 0.00 0.00 0.00 92 1011.7
20260906061057 65 0 0.0 0.0 0.00 0.00 0.00 92 1011.9
20260906060555 66 0 0.0 0.0 0.00 0.00 0.00 92 1011.8
20260906060106 66 0 0.0 0.0 0.00 0.00 0.00 92 1011.8
20260906055554 66 0 0.0 0.0 0.00 0.00 0.00 92 1011.9
20260906055054 66 0 0.0 0.0 0.00 0.00 0.00 92 1012.0
20260906054620 66 0 0.0 0.0 0.00 0.00 0.00 92 1012.0
20260906054058 66 0 0.0 0.0 0.00 0.00 0.00 92 1011.9
20260906053553 66 0 0.0 0.0 0.00 0.00 0.00 91 1012.0
20260906053059 66 0 0.0 0.0 0.00 0.00 0.00 91 1012.0
20260906052556 66 0 0.0 0.0 0.00 0.00 0.00 91 1012.1
20260906052055 66 0 0.0 0.0 0.00 0.00 0.00 92 1012.1
20260906051607 66 0 0.0 0.0 0.00 0.00 0.00 92 1012.1
20260906051053 66 0 0.0 0.0 0.00 0.00 0.00 92 1012.1
20260906050557 66 0 0.0 0.0 0.00 0.00 0.00 92 1012.2
20260906050114 66 0 0.0 0.0 0.00 0.00 0.00 92 1012.2
20260906045557 66 0 0.0 0.0 0.00 0.01 0.00 93 1012.2
20260906045055 66 0 0.0 0.0 0.00 0.01 0.00 93 1012.1
20260906044606 66 0 0.0 0.0 0.00 0.01 0.00 93 1012.3
20260906044058 66 0 0.0 0.0 0.00 0.01 0.00 93 1012.3
20260906043553 66 0 0.0 0.0 0.00 0.01 0.00 93 1012.3
20260906043104 66 0 0.0 0.0 0.00 0.01 0.00 93 1012.4
20260906042555 66 0 0.0 0.0 0.00 0.01 0.00 93 1012.4
20260906042053 66 0 0.0 0.0 0.00 0.01 0.00 93 1012.4
20260906041606 66 0 0.0 0.0 0.00 0.01 0.00 93 1012.4
20260906041052 67 0 0.0 0.0 0.00 0.01 0.00 93 1012.4
20260906040556 67 0 0.0 0.0 0.00 0.01 0.00 93 1012.4
20260906040114 67 0 0.0 0.0 0.00 0.01 0.00 93 1012.4
20260906035554 67 0 0.0 0.0 0.00 0.01 0.01 93 1012.5
20260906035054 67 0 0.0 0.0 0.00 0.01 0.01 93 1012.4
20260906034629 67 0 0.0 0.0 0.00 0.01 0.01 92 1012.5
20260906034055 67 0 0.0 0.0 0.00 0.01 0.01 93 1012.5
20260906033553 67 0 0.0 0.0 0.00 0.01 0.01 93 1012.5
20260906033102 67 0 0.0 0.0 0.00 0.01 0.01 93 1012.7
20260906032553 67 0 0.0 0.0 0.00 0.01 0.01 93 1012.7
20260906032055 68 0 0.0 0.0 0.00 0.01 0.01 92 1012.5
20260906031605 68 0 0.0 0.0 0.00 0.01 0.01 92 1012.5
20260906031055 68 0 0.0 0.0 0.00 0.01 0.01 92 1012.5
20260906030553 68 0 0.0 0.0 0.00 0.01 0.01 92 1012.4
20260906025553 68 0 0.0 0.0 0.00 0.01 0.01 91 1012.4
20260906025057 68 0 0.0 0.0 0.00 0.01 0.01 91 1012.5
20260906024609 68 0 0.0 0.0 0.00 0.01 0.01 91 1012.5
20260906024053 68 0 0.0 0.0 0.00 0.01 0.01 91 1012.5
20260906023554 68 0 0.0 0.0 0.00 0.01 0.01 90 1012.4
20260906023105 69 0 0.0 0.0 0.00 0.01 0.01 91 1012.3
20260906022556 69 0 0.0 0.0 0.00 0.01 0.01 91 1012.4
20260906022056 69 0 0.0 0.0 0.00 0.01 0.01 91 1012.4
20260906021607 69 0 0.0 0.0 0.00 0.01 0.01 91 1012.3
20260906021058 69 0 0.0 0.0 0.00 0.01 0.01 90 1012.3
20260906020553 70 0 0.0 0.0 0.00 0.01 0.01 90 1012.3
20260906020108 70 0 0.0 0.0 0.00 0.01 0.01 90 1012.2
20260906015555 70 0 0.0 0.0 0.00 0.01 0.01 89 1012.0
20260906015053 70 0 0.0 0.0 0.00 0.01 0.01 89 1011.9
20260906014604 70 0 0.0 0.0 0.00 0.01 0.01 89 1011.9
20260906014053 71 0 0.0 0.0 0.00 0.01 0.01 88 1011.9
20260906013555 71 0 0.0 0.0 0.00 0.01 0.01 88 1011.8
20260906013107 71 0 0.0 0.0 0.00 0.01 0.01 87 1011.7
20260906012552 71 0 0.0 0.0 0.00 0.01 0.01 87 1011.7
20260906012055 71 0 0.0 0.0 0.00 0.01 0.01 85 1011.7
20260906011602 71 0 0.0 0.0 0.00 0.01 0.01 84 1011.8
20260906011054 71 0 0.0 0.0 0.00 0.01 0.01 84 1011.7
20260906010553 72 0 0.0 0.0 0.00 0.01 0.01 84 1011.7
20260906010100 72 0 0.0 0.0 0.00 0.01 0.01 84 1011.6
20260906005553 72 0 0.0 0.0 0.00 0.01 0.01 84 1011.6
20260906005054 72 0 0.0 0.0 0.00 0.01 0.01 85 1011.5
20260906004605 73 0 0.0 0.0 0.00 0.01 0.01 85 1011.5
20260906004053 73 0 0.0 0.0 0.00 0.01 0.01 85 1011.5
20260906003553 73 0 0.0 0.0 0.00 0.01 0.01 84 1011.5
20260906003108 73 0 0.0 0.0 0.00 0.01 0.01 84 1011.4
20260906002554 73 0 0.0 0.0 0.00 0.01 0.01 83 1011.5
20260906002057 73 0 0.0 0.0 0.00 0.01 0.01 83 1011.4
20260906001559 73 0 0.0 0.0 0.00 0.01 0.01 81 1011.3
20260906001059 73 0 0.0 0.0 0.00 0.01 0.01 82 1011.2
20260906000556 73 0 0.0 0.0 0.00 0.01 0.01 81 1011.1
20260906000112 73 0 0.0 0.0 0.00 0.01 0.01 81 1011.1
20260905235555 73 0 0.0 0.0 0.00 0.01 0.01 81 1011.1
20260905235054 74 0 0.0 0.0 0.00 0.01 0.01 80 1011.0
20260905234621 74 0 0.0 1.0 0.00 0.01 0.01 80 1010.9
20260905234053 74 0 0.0 1.0 0.00 0.01 0.01 80 1010.9
20260905233553 75 0 0.0 1.0 0.00 0.01 0.01 80 1010.9
20260905233109 75 0 0.0 0.0 0.00 0.01 0.01 80 1010.8
20260905232553 75 0 0.0 0.0 0.00 0.01 0.01 79 1010.8
20260905232055 75 0 0.0 0.0 0.00 0.01 0.01 79 1010.9
20260905231612 76 0 0.0 1.0 0.00 0.01 0.01 78 1010.9
20260905231053 76 0 0.0 1.0 0.00 0.01 0.01 78 1010.8
20260905230556 77 55 0.0 1.0 0.00 0.01 0.01 77 1010.8
20260905230109 77 0 0.0 1.0 0.00 0.01 0.01 77 1010.7
20260905225555 78 0 0.0 2.0 0.00 0.01 0.01 76 1010.8
20260905225055 78 0 0.0 2.0 0.00 0.01 0.01 72 1010.7
20260905224624 78 55 1.0 2.0 0.00 0.01 0.01 72 1010.7
20260905224055 78 0 1.0 2.0 0.00 0.01 0.01 72 1010.7
20260905223552 78 58 1.0 3.0 0.00 0.01 0.01 72 1010.6
20260905223107 78 58 1.0 5.0 0.00 0.01 0.01 71 1010.6
20260905222555 78 58 2.0 5.0 0.00 0.01 0.01 70 1010.6
20260905222053 79 72 1.0 2.0 0.00 0.01 0.01 71 1010.6
20260905221605 79 58 0.0 2.0 0.00 0.01 0.01 72 1010.6
20260905221058 79 0 0.0 3.0 0.00 0.01 0.01 72 1010.5
20260905220553 79 68 0.0 5.0 0.00 0.01 0.01 72 1010.4
20260905220118 79 89 1.0 5.0 0.00 0.01 0.01 71 1010.4
20260905215555 79 64 2.0 5.0 0.00 0.01 0.01 70 1010.4
20260905215055 78 68 1.0 3.0 0.00 0.01 0.01 72 1010.3
20260905214606 78 118 1.0 3.0 0.00 0.01 0.01 71 1010.2
20260905214054 78 57 1.0 2.0 0.00 0.01 0.01 73 1010.1
20260905213556 78 0 0.0 2.0 0.00 0.01 0.01 75 1010.1
20260905213106 78 0 0.0 2.0 0.00 0.01 0.01 74 1010.0
20260905212553 78 0 1.0 2.0 0.00 0.01 0.01 72 1010.1
20260905212056 78 327 1.0 6.0 0.00 0.01 0.01 72 1010.0
20260905211605 78 319 0.0 6.0 0.00 0.01 0.01 72 1009.9
20260905211055 78 0 1.0 6.0 0.00 0.01 0.01 73 1009.9
20260905210553 78 47 0.0 2.0 0.00 0.01 0.01 75 1010.0
20260905210109 78 330 0.0 3.0 0.00 0.01 0.01 75 1010.0
20260905205600 78 321 1.0 3.0 0.00 0.01 0.01 74 1010.0
20260905205053 78 75 1.0 3.0 0.00 0.01 0.01 76 1009.9
20260905204603 78 67 1.0 3.0 0.00 0.01 0.01 74 1009.8
20260905204054 78 0 0.0 0.0 0.00 0.01 0.01 74 1009.9
20260905203558 78 0 0.0 1.0 0.00 0.01 0.01 73 1010.0
20260905203117 78 0 0.0 3.0 0.00 0.01 0.01 72 1010.0
20260905202555 78 326 1.0 3.0 0.00 0.01 0.01 73 1009.9
20260905202055 78 42 0.0 3.0 0.00 0.01 0.01 72 1010.0
20260905201604 78 61 0.0 3.0 0.00 0.01 0.01 73 1010.0